Location: Ladirat
(44.8151°N, 1.9702°E)
Time: 20:43:28
(UTC+00:00)

Cosmos 1238 Rocket - Pass Details

Date: 15 May 2026
Orbit: 351 x 697 km, 82.9° (Epoch: 8 June)

Event Time Altitude Azimuth Distance (km) Brightness Sun altitude
Exits shadow 23:14:57 27° 64° (ENE) 1,118 4.5 -25.7°
Drops below altitude 10° 23:17:47 10° 28° (NNE) 1,942 6.3 -25.8°
Sets 23:20:19 0° 18° (NNE) 2,912 7.5 -25.8°
